KMQY  Smyrna Airport

Add Bookmark

Smyrna, Tennessee, United States

Status Useage
Operational Public
Latitude Longitude
36° 0' 32" N 86° 31' 12" W
36.008972 -86.520083
Local (DST -5) UTC (GMT -6)
Nov 22, 2014 02:27 Nov 22, 2014 08:27
Sunrise-Sunset Local UTC
Begin Civil Twilight 06:01 12:01
Sunrise 06:29 12:29
Sunset 04:35 22:35
End Civil Twilight 05:03 23:03

Current Weather

METAR Observed VFR
KMQY 220756Z AUTO 00000KT 10SM BKN100 03/M01 A3038 Sat, Nov 22, 2014 @ 07:56 UTC
(31 Minutes ago)
Visual Flight Rules
Wind Visibility Clouds Conditions
Calm 10 statute miles
  • Broken at 10,000' AGL
  • No significant weather
Temperatures Readings Precipitation
Current Temp 3°C (37°F)
Dewpoint -1°C (30°F)
Humidity 75%
Altimeter 30.38"Hg
Sea Level Pressure 1029.8mb
Field Elevation 543'
None Recorded

Additional weather within a 50nm radius of KMQY

Map ICAO Location
KBNA 10.3nm N (312°)
KSYI 27.2nm S (173°)
KRNC 37.8nm E (119°)
KTHA 40nm S (161°)
KMRC 42.1nm S (230°)
KSRB 48.1nm E (086°)

24 Hour Weather History

Loading
-

24 Hour Weather Graphs

Loading
-

CheckWX.com is intended as a tool to help pilots better visualize weather data. It is not intended as a substitute for an official weather briefing obtained from a Flight Service Station. CheckWX.com does not meet the FAA requirements for an official pre-flight weather briefing. Therefore, it's important that pilots still call and obtain an official FSS pre-flight weather briefing.